When you browse on this site, cookies collect data to enhance your experience and personalize the content and advertising you see.
Visit our Privacy Policy to learn more. By continuing to use the site, you agree to this use of cookies and data.

Meteo pe oră la Ladyzhin

Astăzi, 16 Iulie, Joi

Timp Temperatura Precipitaţii Vânt Presiune Umiditate
00:00 +15°C° 0 mm 1 m/s 742 mmHg 82%
01:00 +15°C° 0 mm 1 m/s 742 mmHg 84%
02:00 +14°C° 0 mm 1 m/s 742 mmHg 84%
03:00 +13°C° 0 mm 0 m/s 742 mmHg 84%
04:00 +13°C° 0 mm 0 m/s 741 mmHg 84%
05:00 +13°C° 0 mm 0 m/s 741 mmHg 83%
06:00 +15°C° 0 mm 0 m/s 741 mmHg 78%
07:00 +17°C° 0 mm 0 m/s 742 mmHg 73%
08:00 +21°C° 0 mm 1 m/s 742 mmHg 67%
09:00 +22°C° 0 mm 1 m/s 742 mmHg 63%
10:00 +23°C° 0 mm 1 m/s 742 mmHg 58%
11:00 +25°C° 0 mm 1 m/s 742 mmHg 54%
12:00 +25°C° 0.3 mm 1 m/s 741 mmHg 54%
13:00 +25°C° 0.3 mm 1 m/s 741 mmHg 55%
14:00 +25°C° 0.3 mm 2 m/s 741 mmHg 55%
15:00 +25°C° 0.3 mm 1 m/s 741 mmHg 57%
16:00 +25°C° 0.3 mm 1 m/s 740 mmHg 58%
17:00 +25°C° 0.3 mm 1 m/s 740 mmHg 60%
18:00 +23°C° 0.5 mm 1 m/s 740 mmHg 66%
19:00 +22°C° 0.5 mm 1 m/s 740 mmHg 72%
20:00 +20°C° 0.5 mm 1 m/s 740 mmHg 78%
21:00 +19°C° 0.3 mm 1 m/s 740 mmHg 81%
22:00 +18°C° 0.3 mm 1 m/s 740 mmHg 84%
23:00 +18°C° 0.3 mm 1 m/s 740 mmHg 88%

Mâine, 17 Iulie, Vineri

Timp Temperatura Precipitaţii Vânt Presiune Umiditate
00:00 +16°C° 0.1 mm 1 m/s 740 mmHg 88%
01:00 +16°C° 0.1 mm 1 m/s 740 mmHg 89%
02:00 +16°C° 0.1 mm 1 m/s 741 mmHg 89%
03:00 +16°C° 0 mm 1 m/s 740 mmHg 89%
04:00 +15°C° 0 mm 1 m/s 740 mmHg 88%
05:00 +14°C° 0 mm 0 m/s 740 mmHg 88%
06:00 +18°C° 0 mm 1 m/s 740 mmHg 83%
07:00 +20°C° 0 mm 1 m/s 741 mmHg 77%
08:00 +21°C° 0 mm 2 m/s 741 mmHg 72%
09:00 +23°C° 0.1 mm 2 m/s 741 mmHg 67%
10:00 +24°C° 0.1 mm 2 m/s 741 mmHg 61%
11:00 +25°C° 0.1 mm 2 m/s 741 mmHg 56%
12:00 +26°C° 0.1 mm 3 m/s 741 mmHg 55%
13:00 +26°C° 0.1 mm 3 m/s 741 mmHg 54%
14:00 +27°C° 0.1 mm 3 m/s 741 mmHg 54%
15:00 +27°C° 0.1 mm 2 m/s 741 mmHg 54%
16:00 +26°C° 0.1 mm 2 m/s 741 mmHg 55%
17:00 +26°C° 0.1 mm 2 m/s 741 mmHg 56%
18:00 +25°C° 0.2 mm 2 m/s 741 mmHg 62%
19:00 +23°C° 0.2 mm 2 m/s 741 mmHg 68%
20:00 +21°C° 0.2 mm 1 m/s 741 mmHg 73%
21:00 +20°C° 0 mm 2 m/s 741 mmHg 75%
22:00 +19°C° 0 mm 2 m/s 742 mmHg 76%
23:00 +19°C° 0 mm 2 m/s 742 mmHg 78%

Poimâine, 18 Iulie, Sâmbătă

Timp Temperatura Precipitaţii Vânt Presiune Umiditate
00:00 +18°C° 0 mm 2 m/s 742 mmHg 79%
01:00 +18°C° 0 mm 2 m/s 742 mmHg 80%
02:00 +17°C° 0 mm 2 m/s 742 mmHg 82%
03:00 +17°C° 0 mm 2 m/s 742 mmHg 82%
04:00 +17°C° 0 mm 2 m/s 742 mmHg 83%
05:00 +17°C° 0 mm 2 m/s 742 mmHg 84%
06:00 +18°C° 0 mm 2 m/s 743 mmHg 81%
07:00 +19°C° 0 mm 3 m/s 743 mmHg 78%
08:00 +21°C° 0 mm 3 m/s 743 mmHg 75%
09:00 +22°C° 0 mm 3 m/s 743 mmHg 70%
10:00 +25°C° 0 mm 3 m/s 743 mmHg 64%
11:00 +26°C° 0 mm 3 m/s 743 mmHg 59%
12:00 +27°C° 0.1 mm 3 m/s 743 mmHg 57%
13:00 +27°C° 0.1 mm 3 m/s 743 mmHg 55%
14:00 +28°C° 0.1 mm 3 m/s 743 mmHg 53%
15:00 +27°C° 0.1 mm 3 m/s 743 mmHg 54%
16:00 +27°C° 0.1 mm 3 m/s 742 mmHg 56%
17:00 +27°C° 0.1 mm 3 m/s 742 mmHg 58%
18:00 +25°C° 0.1 mm 3 m/s 742 mmHg 63%
19:00 +24°C° 0.1 mm 3 m/s 742 mmHg 69%
20:00 +21°C° 0.1 mm 2 m/s 742 mmHg 74%
21:00 +20°C° 0 mm 2 m/s 743 mmHg 74%
22:00 +20°C° 0 mm 2 m/s 743 mmHg 74%
23:00 +19°C° 0 mm 2 m/s 743 mmHg 74%

19 Iulie, Duminică

Timp Temperatura Precipitaţii Vânt Presiune Umiditate
00:00 +19°C° 0 mm 2 m/s 743 mmHg 75%
01:00 +18°C° 0 mm 2 m/s 743 mmHg 77%
02:00 +18°C° 0 mm 2 m/s 743 mmHg 79%
03:00 +18°C° 0 mm 2 m/s 743 mmHg 80%
04:00 +18°C° 0 mm 2 m/s 743 mmHg 81%
05:00 +18°C° 0 mm 2 m/s 743 mmHg 82%
06:00 +19°C° 0 mm 2 m/s 743 mmHg 79%
07:00 +20°C° 0 mm 2 m/s 743 mmHg 76%
08:00 +23°C° 0 mm 2 m/s 743 mmHg 73%
09:00 +24°C° 0.2 mm 3 m/s 743 mmHg 68%
10:00 +25°C° 0.2 mm 3 m/s 743 mmHg 64%
11:00 +26°C° 0.2 mm 4 m/s 743 mmHg 59%
12:00 +27°C° 0.1 mm 4 m/s 742 mmHg 56%
13:00 +27°C° 0.1 mm 4 m/s 742 mmHg 54%
14:00 +28°C° 0.1 mm 4 m/s 742 mmHg 51%
15:00 +27°C° 0.1 mm 3 m/s 742 mmHg 55%
16:00 +27°C° 0.1 mm 3 m/s 742 mmHg 59%
17:00 +26°C° 0.1 mm 3 m/s 741 mmHg 63%
18:00 +25°C° 0.1 mm 3 m/s 741 mmHg 67%
19:00 +23°C° 0.1 mm 2 m/s 741 mmHg 71%
20:00 +21°C° 0.1 mm 2 m/s 741 mmHg 75%
21:00 +20°C° 0 mm 2 m/s 741 mmHg 75%
22:00 +20°C° 0 mm 2 m/s 741 mmHg 76%
23:00 +19°C° 0 mm 2 m/s 741 mmHg 76%

20 Iulie, Luni

Timp Temperatura Precipitaţii Vânt Presiune Umiditate
00:00 +19°C° 0 mm 2 m/s 741 mmHg 77%
01:00 +18°C° 0 mm 2 m/s 741 mmHg 78%
02:00 +18°C° 0 mm 2 m/s 741 mmHg 78%
03:00 +18°C° 0 mm 3 m/s 741 mmHg 79%
04:00 +18°C° 0 mm 3 m/s 740 mmHg 80%
05:00 +18°C° 0 mm 3 m/s 740 mmHg 80%
06:00 +19°C° 0 mm 3 m/s 740 mmHg 77%
07:00 +21°C° 0 mm 3 m/s 740 mmHg 73%
08:00 +22°C° 0 mm 3 m/s 740 mmHg 70%
09:00 +25°C° 0 mm 3 m/s 740 mmHg 65%
10:00 +26°C° 0 mm 3 m/s 740 mmHg 61%
11:00 +28°C° 0 mm 3 m/s 740 mmHg 56%
12:00 +28°C° 0 mm 3 m/s 740 mmHg 53%
13:00 +29°C° 0 mm 3 m/s 740 mmHg 50%
14:00 +30°C° 0 mm 3 m/s 739 mmHg 47%
15:00 +29°C° 0.1 mm 3 m/s 739 mmHg 52%
16:00 +28°C° 0.1 mm 2 m/s 739 mmHg 56%
17:00 +27°C° 0.1 mm 2 m/s 739 mmHg 61%
18:00 +25°C° 1 mm 3 m/s 739 mmHg 69%
19:00 +22°C° 1 mm 3 m/s 739 mmHg 77%
20:00 +20°C° 1 mm 3 m/s 739 mmHg 85%
21:00 +19°C° 1.5 mm 3 m/s 739 mmHg 87%
22:00 +19°C° 1.5 mm 3 m/s 739 mmHg 89%
23:00 +19°C° 1.5 mm 2 m/s 739 mmHg 91%

21 Iulie, Marţi

Timp Temperatura Precipitaţii Vânt Presiune Umiditate
00:00 +18°C° 0.2 mm 2 m/s 739 mmHg 91%
01:00 +18°C° 0.2 mm 2 m/s 739 mmHg 91%
02:00 +17°C° 0.2 mm 2 m/s 739 mmHg 91%
03:00 +17°C° 0.1 mm 2 m/s 739 mmHg 91%
04:00 +17°C° 0.1 mm 2 m/s 739 mmHg 91%
05:00 +18°C° 0.1 mm 1 m/s 739 mmHg 90%
06:00 +19°C° 0 mm 2 m/s 739 mmHg 86%
07:00 +20°C° 0 mm 2 m/s 740 mmHg 81%
08:00 +23°C° 0 mm 2 m/s 740 mmHg 77%
09:00 +24°C° 0 mm 2 m/s 740 mmHg 71%
10:00 +26°C° 0 mm 2 m/s 740 mmHg 65%
11:00 +27°C° 0 mm 2 m/s 740 mmHg 59%
12:00 +28°C° 0.2 mm 3 m/s 740 mmHg 58%
13:00 +28°C° 0.2 mm 3 m/s 740 mmHg 56%
14:00 +29°C° 0.2 mm 3 m/s 740 mmHg 55%
15:00 +28°C° 0.6 mm 3 m/s 740 mmHg 60%
16:00 +28°C° 0.6 mm 4 m/s 740 mmHg 65%
17:00 +27°C° 0.6 mm 4 m/s 740 mmHg 71%
18:00 +25°C° 0.6 mm 4 m/s 740 mmHg 77%
19:00 +23°C° 0.6 mm 4 m/s 740 mmHg 83%
20:00 +21°C° 0.6 mm 5 m/s 740 mmHg 90%
21:00 +20°C° 0 mm 5 m/s 741 mmHg 91%
22:00 +19°C° 0 mm 4 m/s 741 mmHg 92%
23:00 +18°C° 0 mm 4 m/s 741 mmHg 93%
Arată mai mult